Tegucigalpa, Honduras

6:43 AM CST en Mayo 21, 2018 (GMT -0600)
Toncontin International

Tiempo Historia de MHTG - Mayo, 2018

Change the Weather History Date:

Miércoles, Mayo 16, 2018

  Actual Average Record
Temperature  
Temperatura media 72 ° F -  
Temperatura máxima 84 ° F 82 ° F 91 ° F (2008)
Temperatura mínima 60 ° F 64 ° F 59 ° F (1997)
Cooling Degree Days 7    
Growing Degree Days 22 (Base 50)    
Moisture  
Punto de rocío 64 ° F    
Average Humidity 81    
Maximum Humidity 100    
Minimum Humidity 50    
Precipitación  
Precipitación 0.04 pul 0.20 pul - ()
Presión al nivel del mar  
Presión al nivel del mar 29.99 pul    
Viento  
Velocidad del viento 2 mph ()    
Velocidad máxima del viento 14 mph    
Max Gust Speed -    
Visibilidad 4.7 Millas    
Eventos Lluvia , Tormenta    
Averages and records for this station are not official NWS values.
T = Trace of Precipitation, MM = Missing Value Source: Averaged Metar Reports

Daily Weather History Graph

Daily Weather History Graph

Search for Another Location

Airport or City:

Astronomía

May. 16, 2018 Salida Puesta
Hora real 5:21 AM CST 6:08 PM CST
Crepúsculo civil 4:58 AM CST 6:31 PM CST
Crepúsculo náutico 4:32 AM CST 6:58 PM CST
Crepúsculo astronómico 4:04 AM CST 7:25 PM CST
Luna 6:29 AM CST (5/16) 7:36 PM CST (5/16)
Horas de luz 13h 32m
Horas de luz
12h 47m
Luna nueva, 2% of the Moon is Illuminated
May 16
Luna nueva
May 21
Cuarto creciente
May 29
Luna llena
Jun 6
Cuarto menguante
Jun 13
Nueva

Hourly Weather History & Observations

Hora (CST) Temp. Índice de calor Punto de rocío Humedad Presión Visibilidad Wind Dir Velocidad del viento Velocidad de ráfagas Precip Eventos Condiciones
12:00 AM 64 ° F - 63 ° F 96% 29.99 pul 4 mi Sin viento Sin viento - - Lluvia , Tormenta Tormenta
12:00 AM 64.4 ° F - 62.6 ° F 94% 30.06 pul 4.3 mi Sin viento Sin viento - N/A Lluvia , Tormenta Tormenta débil
1:00 AM 64.4 ° F - 62.6 ° F 94% 30.04 pul 5.0 mi Sin viento Sin viento - N/A   Muy nublado
2:00 AM 64.4 ° F - 64.4 ° F 100% 30.04 pul 5.0 mi SSO 3.5 mph - N/A   Muy nublado
3:00 AM 64 ° F - 64 ° F 98% 29.95 pul 5 mi Sin viento Sin viento - -   Bruma
3:00 AM 64.4 ° F - 64.4 ° F 100% 30.04 pul 5.0 mi Sin viento Sin viento - N/A   Muy nublado
4:00 AM 64.4 ° F - 62.6 ° F 94% 30.01 pul 5.0 mi Sur 3.5 mph - N/A   Nubes dispersas
5:00 AM 62.6 ° F - 62.6 ° F 100% 30.01 pul 5.0 mi Sin viento Sin viento - N/A   Parcialmente nublado
6:00 AM 62 ° F - 62 ° F 98% 29.98 pul 4 mi Sin viento Sin viento - -   Neblina
6:00 AM 60.8 ° F - 60.8 ° F 100% 30.04 pul 3.7 mi Sin viento Sin viento - N/A   Nubes dispersas
7:00 AM 64.4 ° F - 64.4 ° F 100% 30.04 pul 3.7 mi Sin viento Sin viento - N/A   Muy nublado
8:00 AM 68.0 ° F - 62.6 ° F 83% 30.06 pul 3.7 mi Sin viento Sin viento - N/A   Muy nublado
9:00 AM 71 ° F - 65 ° F 74% 29.94 pul 4 mi Sin viento Sin viento - -   Bruma
9:00 AM 71.6 ° F - 64.4 ° F 78% 30.06 pul 4.3 mi Sin viento Sin viento - N/A   Muy nublado
10:00 AM 77.0 ° F - 64.4 ° F 65% 30.04 pul 5.6 mi Sin viento Sin viento - N/A   Muy nublado
11:00 AM 78.8 ° F - 64.4 ° F 61% 30.01 pul 6.2 mi Sin viento Sin viento - N/A   Muy nublado
12:00 PM 81 ° F - 66 ° F 50% 29.82 pul 6 mi Sin viento Sin viento - -   Bruma
12:00 PM 80.6 ° F 82.7 ° F 66.2 ° F 61% 30.01 pul 6.2 mi Sin viento Sin viento - N/A   Muy nublado
1:00 PM 84.2 ° F 86.6 ° F 66.2 ° F 55% 29.98 pul 6.2 mi NE 6.9 mph - N/A   Nubes dispersas
2:00 PM 82.4 ° F 83.4 ° F 62.6 ° F 51% 29.95 pul 6.2 mi NE 6.9 mph - N/A   Nubes dispersas
2:05 PM 80.6 ° F 81.8 ° F 62.6 ° F 54% 29.95 pul 6.2 mi ESE 4.6 mph - N/A Tormenta Tormenta
3:00 PM 77 ° F - 62 ° F 51% 29.79 pul 5 mi NE 6.9 mph - - Tormenta Tormenta
3:00 PM 77.0 ° F - 62.6 ° F 61% 29.95 pul 5.0 mi NE 6.9 mph - N/A Tormenta Tormenta
4:00 PM 75.2 ° F - 64.4 ° F 69% 29.92 pul 6.2 mi SSE 6.9 mph - N/A Tormenta Tormenta
5:00 PM 73.4 ° F - 66.2 ° F 78% 29.95 pul 5.0 mi ESE 6.9 mph - N/A Lluvia , Tormenta Tormenta débil
5:05 PM 71.6 ° F - 66.2 ° F 83% 29.95 pul 2.5 mi Sur 13.8 mph - N/A Lluvia , Tormenta Tormenta débil
6:00 PM 71 ° F - 66 ° F 78% 29.86 pul 4 mi Norte 6.9 mph - - Lluvia , Tormenta Tormenta
6:00 PM 71.6 ° F - 66.2 ° F 83% 29.98 pul 3.7 mi Norte 6.9 mph - N/A Lluvia , Tormenta Tormenta débil
7:00 PM 66.2 ° F - 62.6 ° F 88% 30.01 pul 4.3 mi Norte 6.9 mph - N/A Lluvia , Tormenta Tormenta débil
8:00 PM 66.2 ° F - 64.4 ° F 94% 30.04 pul 4.3 mi Sin viento Sin viento - N/A Lluvia , Tormenta Tormenta débil
9:00 PM 66 ° F - 64 ° F 93% 30.00 pul 4 mi Este 4.6 mph - - Lluvia , Tormenta Tormenta
9:00 PM 66.2 ° F - 64.4 ° F 94% 30.06 pul 4.3 mi Este 4.6 mph - N/A Lluvia , Tormenta Tormenta débil
10:00 PM 66.2 ° F - 64.4 ° F 94% 30.09 pul 4.3 mi Sin viento Sin viento - N/A   Muy nublado
11:00 PM 66.2 ° F - 64.4 ° F 94% 30.09 pul 4.3 mi NNE 2.3 mph - N/A Lluvia Lluvia débil